Date String (YYYY-MM-DD hh:mm:ss) UTC,Instrument flags,Ambient pressure (hPa),Sample flow (lpm),Bypass flow (lpm),Sample temperature (°C),Ambient temperature (°C),ASC tube jacket temperature (°C),LED temperature (°C),Box temperature (°C),Sample RH (%),Span deviation,Mass concentration (μg/m³),Mass concentration (μg/m³),Mass concentration (μg/m³)
DateTimeUTC,F1_M11,P_M11,Q1_M11,Q2_M11,T1_M11,T2_M11,T3_M11,T4_M11,T5_M11,U1_M11,ZSPAN_M11,X0_M11,X2_M11,X1_M11
2022-07-28 05:00:00,,0830.5,5.00,0.00,31.3,28.2,00.0,39.7,31.9,34.5,0003.8,0015.74,0008.78,0006.75
2022-07-28 05:01:00,,0830.6,5.00,0.00,31.2,28.3,00.0,39.7,31.9,34.9,0003.9,0015.21,0008.59,0006.71
2022-07-28 05:02:00,,0830.6,4.98,0.00,31.2,28.3,00.0,39.7,32.0,35.4,0004.0,0014.87,0008.53,0006.71
2022-07-28 05:03:00,,0830.5,5.01,0.00,31.4,28.4,00.0,39.7,32.1,35.1,0004.4,0014.07,0008.36,0006.69
2022-07-28 05:04:00,,0830.4,5.00,0.00,31.6,28.4,00.0,39.7,32.2,34.5,0004.8,0013.12,0008.24,0006.65
2022-07-28 05:05:00,,0830.3,5.01,0.00,31.7,28.4,00.0,39.7,32.1,34.5,0004.9,0013.00,0008.19,0006.63
2022-07-28 05:06:00,,0830.1,5.00,0.00,31.7,28.5,00.0,39.7,32.1,34.7,0004.8,0013.00,0008.16,0006.62
2022-07-28 05:07:00,,0830.1,4.99,0.00,31.7,28.5,00.0,39.7,32.1,34.5,0003.8,0012.92,0008.14,0006.59
2022-07-28 05:08:00,,0830.1,5.00,0.00,31.7,28.5,00.0,39.7,32.0,34.1,0001.3,0012.83,0008.10,0006.57
2022-07-28 05:09:00,,0830.0,5.00,0.00,31.6,28.5,00.0,39.8,32.0,33.7,0000.0,0012.70,0008.06,0006.56
2022-07-28 05:10:00,,0830.1,4.99,0.00,31.6,28.5,00.0,39.8,32.0,33.2,0000.9,0012.65,0008.03,0006.55
2022-07-28 05:11:00,,0830.0,5.00,0.00,31.5,28.5,00.0,39.8,32.0,33.5,0000.0,0012.48,0007.97,0006.54
2022-07-28 05:12:00,,0829.8,5.00,0.00,31.5,28.5,00.0,39.8,32.0,33.6,0000.0,0012.42,0007.93,0006.52
2022-07-28 05:13:00,,0829.8,5.00,0.00,31.4,28.3,00.0,39.8,32.0,33.3,0000.0,0012.20,0007.83,0006.49
2022-07-28 05:14:00,,0829.8,5.01,0.00,31.4,27.7,00.0,39.7,31.9,33.3,0000.9,0011.96,0007.74,0006.48
2022-07-28 05:15:00,,0829.7,4.99,0.00,31.3,27.3,00.0,39.6,31.9,33.5,0000.0,0011.68,0007.66,0006.48
2022-07-28 05:16:00,,0829.6,5.01,0.00,31.2,27.2,00.0,39.6,31.7,34.2,0000.0,0011.39,0007.56,0006.49
2022-07-28 05:17:00,,0829.7,5.01,0.00,31.1,27.3,00.0,39.6,31.7,35.2,0000.0,0011.21,0007.51,0006.51
2022-07-28 05:18:00,,0829.5,4.99,0.00,31.1,27.4,00.0,39.5,31.8,35.2,0000.0,0011.11,0007.49,0006.53
2022-07-28 05:19:00,,0829.6,5.01,0.00,31.4,27.6,00.0,39.5,32.0,34.9,0000.0,0011.10,0007.49,0006.57
2022-07-28 05:20:00,,0829.5,4.99,0.00,31.6,27.7,00.0,39.5,32.1,34.1,0000.0,0011.13,0007.50,0006.60
2022-07-28 05:21:00,,0829.5,5.01,0.00,31.7,27.8,00.0,39.5,32.0,33.5,0000.0,0011.17,0007.52,0006.61
2022-07-28 05:22:00,,0829.5,5.00,0.00,31.7,28.0,00.0,39.5,32.0,33.0,0000.0,0011.23,0007.54,0006.62
2022-07-28 05:23:00,,0829.3,5.00,0.00,31.7,28.1,00.0,39.6,32.0,33.1,0000.0,0011.23,0007.54,0006.62
2022-07-28 05:24:00,,0829.3,5.00,0.00,31.7,28.2,00.0,39.6,32.0,33.1,0000.0,0011.29,0007.56,0006.64
2022-07-28 05:25:00,,0829.2,4.99,0.00,31.7,28.3,00.0,39.6,32.0,33.0,0000.0,0011.34,0007.57,0006.63
2022-07-28 05:26:00,,0829.2,4.99,0.00,31.7,28.4,00.0,39.7,32.0,32.9,0001.6,0011.29,0007.55,0006.62
2022-07-28 05:27:00,,0829.2,5.00,0.00,31.6,28.4,00.0,39.7,32.0,32.9,0003.1,0011.28,0007.57,0006.64
2022-07-28 05:28:00,,0829.2,5.00,0.00,31.6,28.5,00.0,39.7,32.0,32.6,0000.9,0011.19,0007.58,0006.64
2022-07-28 05:29:00,,0829.2,5.01,0.00,31.5,28.5,00.0,39.7,32.1,32.7,0000.0,0011.17,0007.57,0006.66
2022-07-28 05:30:00,,0829.1,5.00,0.00,31.5,28.5,00.0,39.7,32.1,32.8,0000.0,0011.40,0007.54,0006.66
2022-07-28 05:31:00,,0829.0,5.00,0.00,31.5,28.6,00.0,39.7,32.1,32.8,0000.0,0011.29,0007.52,0006.67
2022-07-28 05:32:00,,0829.0,5.01,0.00,31.4,28.6,00.0,39.7,32.1,32.9,0000.0,0011.31,0007.51,0006.66
2022-07-28 05:33:00,,0829.1,5.00,0.00,31.4,28.7,00.0,39.7,32.1,32.8,0000.0,0011.23,0007.48,0006.65
2022-07-28 05:34:00,,0829.0,5.00,0.00,31.3,28.7,00.0,39.7,32.1,32.9,0000.5,0011.05,0007.42,0006.65
2022-07-28 05:35:00,,0829.0,5.02,0.00,31.3,28.7,00.0,39.7,32.2,32.7,0001.6,0011.26,0007.36,0006.64
2022-07-28 05:36:00,,0829.0,5.00,0.00,31.3,28.8,00.0,39.7,32.2,32.4,0002.9,0011.21,0007.30,0006.63
2022-07-28 05:37:00,,0829.0,5.00,0.00,31.3,28.8,00.0,39.7,32.2,32.4,0003.7,0012.18,0007.32,0006.62
2022-07-28 05:38:00,,0829.0,5.00,0.00,31.2,28.8,00.0,39.7,32.2,32.5,0003.7,0012.15,0007.29,0006.62
2022-07-28 05:39:00,,0828.9,4.99,0.00,31.2,28.7,00.0,39.7,32.2,32.9,0003.1,0012.77,0007.27,0006.61
2022-07-28 05:40:00,,0828.9,5.01,0.00,31.2,27.9,00.0,39.6,32.1,32.8,0003.0,0013.31,0007.28,0006.60
2022-07-28 05:41:00,,0828.9,4.99,0.00,31.1,27.5,00.0,39.5,32.0,32.9,0002.9,0012.97,0007.29,0006.58
2022-07-28 05:42:00,,0828.9,5.00,0.00,31.0,27.4,00.0,39.5,31.9,32.9,0001.1,0013.04,0007.30,0006.57
2022-07-28 05:43:00,,0829.0,5.00,0.00,30.9,27.4,00.0,39.5,31.8,33.5,0000.0,0013.00,0007.29,0006.56
2022-07-28 05:44:00,,0829.0,4.99,0.00,30.8,27.6,00.0,39.4,31.8,33.4,0000.0,0012.96,0007.27,0006.56
2022-07-28 05:45:00,,0829.0,5.02,0.00,30.7,27.7,00.0,39.4,31.7,33.2,0000.0,0013.34,0007.29,0006.57
2022-07-28 05:46:00,,0829.1,5.00,0.00,30.7,27.8,00.0,39.3,31.7,33.0,0000.0,0013.78,0007.33,0006.58
2022-07-28 05:47:00,,0829.1,5.00,0.00,30.6,27.9,00.0,39.3,31.8,32.9,0000.0,0013.65,0007.32,0006.58
2022-07-28 05:48:00,,0829.1,5.01,0.00,30.6,28.0,00.0,39.3,31.8,32.8,0000.0,0012.82,0007.32,0006.58
2022-07-28 05:49:00,,0829.2,5.00,0.00,30.5,28.1,00.0,39.3,31.8,33.2,0000.0,0012.80,0007.34,0006.57
2022-07-28 05:50:00,,0829.2,5.00,0.00,30.5,28.2,00.0,39.2,31.8,33.3,0000.0,0012.32,0007.28,0006.53
2022-07-28 05:51:00,,0829.3,5.00,0.00,30.5,28.3,00.0,39.2,31.8,33.4,0000.0,0011.50,0007.23,0006.50
2022-07-28 05:52:00,,0829.3,4.99,0.00,30.5,28.4,00.0,39.2,31.8,33.6,0000.0,0011.40,0007.16,0006.46
2022-07-28 05:53:00,,0829.3,5.00,0.00,30.5,28.4,00.0,39.2,31.8,32.8,0000.0,0011.33,0007.09,0006.42
2022-07-28 05:54:00,,0829.3,5.00,0.00,30.5,28.5,00.0,39.2,31.9,33.0,0000.0,0011.58,0007.00,0006.37
2022-07-28 05:55:00,,0829.3,5.01,0.00,30.5,28.5,00.0,39.1,31.9,33.1,0000.0,0011.64,0006.96,0006.32
2022-07-28 05:56:00,,0829.2,5.00,0.00,30.4,28.6,00.0,39.1,31.9,33.1,0000.9,0011.26,0006.90,0006.28
2022-07-28 05:57:00,,0829.2,5.00,0.00,30.4,28.6,00.0,39.1,31.9,33.2,0001.0,0010.41,0006.83,0006.23
2022-07-28 05:58:00,,0829.3,5.01,0.00,30.4,28.6,00.0,39.1,31.9,33.0,0001.0,0010.40,0006.81,0006.20
2022-07-28 05:59:00,,0829.2,4.99,0.00,30.4,28.6,00.0,39.1,31.9,32.8,0000.6,0010.31,0006.76,0006.16
